Limon, CO

9:20 AM MST on January 16, 2017 (GMT -0700)
Limon Municipal

Weather History for KLIC - March, 2013

Change the Weather History Date:

Thursday, March 28, 2013

  Actual Average Record
Temperature  
Mean Temperature 44 °F -  
Max Temperature 61 °F - 76 °F (2015)
Min Temperature 26 °F - 12 °F (2009)
Degree Days  
Heating Degree Days 21    
Month to date heating degree days 872  
Cooling Degree Days 0    
Month to date cooling degree days 0  
Moisture  
Dew Point 31 °F    
Average Humidity 62    
Maximum Humidity 92    
Minimum Humidity 32    
Precipitation  
Precipitation 0.00 in - 0.00 in (2017)
Month to date precipitation 1.24  
Year to date precipitation 2.10  
Sea Level Pressure  
Sea Level Pressure 30.08 in    
Wind  
Wind Speed 6 mph (SE)    
Max Wind Speed 13 mph    
Max Gust Speed 15 mph    
Visibility 10 miles    
Events      
T = Trace of Precipitation, MM = Missing Value Source: NWS Daily Summary

Daily Weather History Graph

Daily Weather History Graph

Search for Another Location

Airport or City:

Trip Planner

Search our weather history database for the weather conditions in past years. The results will help you decide how hot, cold, wet, or windy it might be!

Date:

Astronomy

Mar. 28, 2013 Rise Set
Actual Time 6:44 AM MDT 7:14 PM MDT
Civil Twilight 6:18 AM MDT 7:41 PM MDT
Nautical Twilight 5:46 AM MDT 8:13 PM MDT
Astronomical Twilight 5:14 AM MDT 8:46 PM MDT
Moon 9:08 PM MDT (3/28) 7:15 AM MDT (3/28)
Length of Visible Light 13h 23m
Length of Day
12h 29m
Full, 98% of the Moon is Illuminated
Mar 28
Full
Apr 2
Last Quarter
Apr 10
New
Apr 18
First Quarter
Apr 25
Full

Hourly Weather History & Observations

Time (MDT) Temp. Windchill Dew Point Humidity Pressure Visibility Wind Dir Wind Speed Gust Speed Precip Events Conditions
12:55 AM 33.1 °F 25.5 °F 30.9 °F 92% 30.11 in 10.0 mi South 9.2 mph - N/A   Clear
1:55 AM 34.0 °F 26.6 °F 30.9 °F 89% 30.10 in 10.0 mi SSW 9.2 mph - N/A   Clear
2:55 AM 32.0 °F 24.8 °F 28.9 °F 88% 30.10 in 10.0 mi SSW 8.1 mph - N/A   Clear
3:55 AM 32.0 °F - 28.0 °F 85% 30.09 in 10.0 mi Calm Calm - N/A   Clear
4:55 AM 28.0 °F 22.8 °F 26.1 °F 92% 30.09 in 10.0 mi SSE 4.6 mph - N/A   Clear
5:55 AM 26.1 °F - 25.0 °F 96% 30.11 in 10.0 mi Calm Calm - N/A   Clear
6:55 AM 33.1 °F 27.7 °F 27.0 °F 78% 30.10 in 10.0 mi South 5.8 mph - N/A   Clear
7:55 AM 34.0 °F 31.0 °F 28.0 °F 79% 30.12 in 10.0 mi East 3.5 mph - N/A   Clear
8:55 AM 37.9 °F 32.7 °F 30.9 °F 76% 30.12 in 10.0 mi ESE 6.9 mph - N/A   Clear
9:55 AM 45.0 °F 40.6 °F 30.0 °F 56% 30.12 in 10.0 mi South 8.1 mph - N/A   Clear
10:55 AM 48.9 °F - 30.9 °F 50% 30.09 in 10.0 mi SSW 9.2 mph - N/A   Clear
11:55 AM 53.1 °F - 30.0 °F 41% 30.08 in 10.0 mi Calm Calm - N/A   Clear
12:55 PM 55.9 °F - 32.0 °F 40% 30.04 in 10.0 mi WNW 5.8 mph - N/A   Clear
1:55 PM 59.0 °F - 30.0 °F 33% 30.02 in 10.0 mi Calm Calm - N/A   Clear
2:55 PM 60.1 °F - 30.0 °F 32% 30.01 in 10.0 mi ENE 6.9 mph - N/A   Clear
3:55 PM 61.0 °F - 30.0 °F 31% 29.99 in 10.0 mi NE 8.1 mph - N/A   Clear
4:55 PM 60.1 °F - 32.0 °F 35% 30.02 in 10.0 mi NE 4.6 mph - N/A   Clear
5:55 PM 57.0 °F - 34.0 °F 42% 30.04 in 10.0 mi East 8.1 mph - N/A   Clear
6:55 PM 48.9 °F - 37.0 °F 64% 30.07 in 10.0 mi ENE 4.6 mph - N/A   Partly Cloudy
7:55 PM 46.0 °F - 34.0 °F 63% 30.10 in 10.0 mi Calm Calm - N/A   Mostly Cloudy
8:55 PM 41.0 °F 39.0 °F 36.0 °F 82% 30.12 in 10.0 mi NW 3.5 mph - N/A   Mostly Cloudy
9:55 PM 41.0 °F - 37.0 °F 86% 30.09 in 10.0 mi Calm Calm - N/A   Overcast
10:55 PM 36.0 °F - 33.1 °F 89% 30.09 in 10.0 mi Calm Calm - N/A   Clear
11:55 PM 33.1 °F - 30.9 °F 92% 30.10 in 10.0 mi Calm Calm - N/A   Clear